Regional Weather Roundup
Issued by NWS

Home | Current Version | Previous Version | Graphics & Text | Print | Product List | Glossary On
Versions: 1 2 3 4 5 6 7 8 9 10 11 12 13 14 15 16 17 18 19 20 21 22 23 24 25 26 27 28 29 30 31 32 33 34 35 36 37 38 39 40 41 42 43 44 45 46 47 48 49 50
000
ASUS43 KDMX 250401
RWRIA

WEATHER ROUNDUP FOR IOWA
NATIONAL WEATHER SERVICE DES MOINES IA
1100 PM CDT MON JUL 24 2017

NOTE: "FAIR" INDICATES FEW OR NO CLOUDS BELOW 12,000 FEET WITH NO
SIGNIFICANT WEATHER AND/OR OBSTRUCTIONS TO VISIBILITY.

* - THESE STATIONS ARE NOT NWS STATIONS...THUS NOT UNDER NWS
QUALITY CONTROL.  THEY ALSO DO NOT REPORT WEATHER SUCH
AS PRECIPITATION OR FOG.

IAZ001>003-012>014-020>022-031>034-043>046-250500-
   NORTHWEST IOWA

CITY           SKY/WX    TMP DP  RH WIND       PRES   REMARKS
CARROLL *      PTCLDY    68  66  94 SE7       30.02S
CHEROKEE *     CLEAR     69  65  85 S5        30.00R
DENISON *      CLEAR     70  66  88 SE6       30.02F
ORANGE CITY *  PTCLDY    72  66  83 SE8       29.97F
SHELDON *      PTCLDY    70  64  83 SE7       29.97R
SIOUX CITY     PTCLDY    75  66  73 SE9       29.95S
SPENCER        CLEAR     71  64  78 SE12      30.00F
STORM LAKE *   CLEAR     68  64  88 SE9       30.01F
$$

IAZ055>058-069>071-079>083-090>094-250500-
   SOUTHWEST IOWA

CITY           SKY/WX    TMP DP  RH WIND       PRES   REMARKS
ATLANTIC *     CLEAR     72  66  83 CALM      30.02S
AUDUBON *      CLEAR     68  64  88 CALM      30.04R
CLARINDA *       N/A     72  66  83 CALM      30.05R
COUNCIL BLFS * PTCLDY    72  70  94 SE8       30.00F
CRESTON *      CLEAR     72  64  78 S5        30.05R
HARLAN  *      CLEAR     70  68  94 CALM      30.05R
LAMONI         CLEAR     73  66  78 S5        30.04R
RED OAK *      CLEAR     73  66  78 CALM      30.02R
SHENANDOAH *     N/A     72  68  88 SE3       30.02R
$$

IAZ047>049-059>061-072>074-084-250500-
   CENTRAL IOWA

CITY           SKY/WX    TMP DP  RH WIND       PRES   REMARKS
AMES           CLEAR     69  66  90 SE6       30.04R
ANKENY *       CLEAR     70  66  88 E10       30.05R
BOONE *        CLEAR     70  64  83 SE12      30.03R
CHARITON *     CLEAR     72  64  78 E7        30.04R
DES MOINES     CLEAR     74  65  73 E9        30.03R
GRINNELL*      CLEAR     66  63  90 E6        30.08R
KNOXVILLE *    CLEAR     72  64  78 E7        30.04R
MARSHALLTOWN   CLEAR     65  64  97 E7        30.05R
NEWTON *       CLEAR     68  64  88 E8        30.06R
PELLA *          N/A     70  64  82 E3        30.06R
$$

IAZ004>006-015-016-023>025-035-036-250500-
   NORTH CENTRAL IOWA

CITY           SKY/WX    TMP DP  RH WIND       PRES   REMARKS
ALGONA *       CLEAR     68  64  88 SE7       30.04S
CLARION *      CLOUDY    68  66  94 SE8       30.05R
ESTHERVILLE    CLEAR     67  64  90 SE10      30.01R
FORT DODGE *   CLEAR     68  61  77 SE6       30.04R
MASON CITY     CLEAR     66  62  87 SE8       30.07R
FOREST CITY *    N/A     66  63  88 SE5       30.05R
WEBSTER CITY * CLEAR     66  63  88 SE8       30.02R
IOWA FALLS *     N/A     65  63  94 E6        30.06S
$$

IAZ007>011-017>019-026>030-037>042-050>054-066-250500-
   NORTHEAST IOWA

CITY           SKY/WX    TMP DP  RH WIND       PRES   REMARKS
CEDAR RAPIDS   CLEAR     63  63 100 E8        30.07R
CHARLES CITY * CLEAR     64  63  94 SE8       30.07S
DECORAH *      CLEAR     63  61  94 SE5       30.08S
DUBUQUE        CLEAR     65  59  81 SE6       30.10S
MONTICELLO *   CLEAR     64  63  94 E5        30.08S
WATERLOO       CLEAR     64  61  90 E5        30.06R
$$

IAZ064-065-067-068-078-250500-
   EAST CENTRAL IOWA

CITY           SKY/WX    TMP DP  RH WIND       PRES   REMARKS
DAVENPORT      CLEAR     62  60  93 E5        30.10S
IOWA CITY      CLEAR     70  63  78 E7        30.08R
MUSCATINE *    CLEAR     66  63  88 CALM      30.08R
QUAD CITIES    CLEAR     65  60  84 E5        30.08R
$$

IAZ062-063-075>077-085>089-095>099-250500-
   SOUTHEAST IOWA

CITY           SKY/WX    TMP DP  RH WIND       PRES   REMARKS
BURLINGTON     CLEAR     69  65  86 E5        30.07R
FAIRFIELD *    CLEAR     66  63  88 E7        30.06R
FORT MADISON * CLEAR     66  64  94 E5        30.08R
KEOKUK *       CLEAR     70  64  83 E9        30.06R
OSKALOOSA *      N/A     68  64  86 E9        30.06R
OTTUMWA        CLEAR     69  66  90 E9        30.04R
WASHINGTON *   CLEAR     64  64 100 E6        30.07S
$$

ABBREVIATIONS USED IN REMARKS
   TC - TEMPERATURES IN CELSIUS
  WCI - WIND CHILL INDEX
   HX - HEAT INDEX
  VSB - VISIBILITY
$$





USA.gov is the U.S. government's official web portal to all federal, state and local government web resources and services.